DW0000 Weather Reports


time (UTC)temp
F
wind
direction
speed
knots
gust
knots
rain 1hr
in
rain 24hr
in
rain mn
in
humidity
%
barometer
mb
20260903113006 58 310 15.6 24.3 0.00 0.18 0.18 96 1016.8
20260903112507 58 312 15.6 22.6 0.00 0.18 0.18 96 1016.9
20260903111506 58 316 21.7 26.9 0.00 0.18 0.18 97 1017.0
20260903111008 58 319 20.0 22.6 0.00 0.18 0.18 97 1017.1
20260903110506 58 320 18.2 25.2 0.00 0.18 0.18 97 1017.1
20260903105006 58 317 15.6 25.2 0.00 0.18 0.18 96 1017.1
20260903104007 58 311 17.4 25.2 0.00 0.18 0.18 96 1017.4
20260903102505 58 318 18.2 26.9 0.00 0.18 0.18 97 1017.2
20260903100506 58 322 16.5 25.2 0.00 0.18 0.18 97 1017.5
20260903100008 58 322 19.1 26.1 0.00 0.18 0.18 97 1017.5
20260903095006 58 319 14.8 25.2 0.00 0.18 0.18 97 1017.5
20260903094007 58 316 18.2 26.1 0.00 0.18 0.18 97 1017.6
20260903093506 58 314 17.4 24.3 0.00 0.18 0.18 97 1017.4
20260903092005 58 309 19.1 26.1 0.00 0.18 0.18 97 1017.2
20260903091506 58 309 14.8 24.3 0.00 0.19 0.18 97 1017.4
20260903091007 58 303 15.6 26.1 0.00 0.19 0.18 97 1017.2
20260903090506 58 309 19.1 26.1 0.00 0.19 0.18 97 1017.2
20260903090006 58 314 19.1 25.2 0.00 0.19 0.18 97 1017.3
20260903085007 58 312 11.3 21.7 0.00 0.19 0.18 97 1017.5
20260903084505 58 307 17.4 22.6 0.00 0.19 0.18 97 1017.3
20260903082505 58 309 18.2 26.1 0.00 0.20 0.18 97 1017.3
20260903081006 58 313 18.2 22.6 0.00 0.20 0.18 97 1017.3
20260903080007 58 314 20.0 25.2 0.00 0.20 0.18 97 1017.3
20260903075506 58 311 17.4 25.2 0.00 0.20 0.18 97 1017.2
20260903075006 58 314 19.1 25.2 0.00 0.20 0.18 97 1017.1
20260903074506 58 311 18.2 25.2 0.00 0.20 0.18 97 1017.3
20260903074007 57 312 18.2 22.6 0.00 0.20 0.18 97 1017.1
20260903073507 58 313 15.6 24.3 0.00 0.20 0.18 97 1017.1
20260903073006 58 320 18.2 21.7 0.00 0.20 0.18 97 1017.0
20260903072505 58 313 17.4 21.7 0.00 0.20 0.18 97 1017.1
20260903072006 58 309 18.2 26.1 0.00 0.20 0.18 97 1017.2
20260903071507 58 313 20.0 26.1 0.00 0.20 0.18 97 1016.8
20260903071006 58 310 19.1 26.1 0.00 0.20 0.18 97 1016.7
20260903065006 57 320 19.1 24.3 0.00 0.20 0.18 96 1016.8
20260903062006 57 319 20.0 26.9 0.00 0.20 0.18 95 1016.8
20260903061006 57 312 21.7 27.8 0.02 0.20 0.18 95 1016.7
20260903060506 57 320 18.2 26.9 0.02 0.20 0.18 94 1016.7
20260903055508 57 312 14.8 21.7 0.03 0.20 0.18 94 1016.8
20260903055005 57 259 8.7 24.3 0.03 0.20 0.18 94 1016.6
20260903054505 57 317 20.0 31.3 0.03 0.20 0.18 94 1016.9
20260903054007 57 320 25.2 34.8 0.03 0.20 0.18 93 1016.4
20260903052007 57 322 20.0 26.1 0.02 0.20 0.17 90 1016.7
20260903051005 57 319 17.4 26.9 0.01 0.19 0.16 88 1016.7
20260903050005 58 303 18.2 30.4 0.00 0.17 0.15 85 1016.7
20260903045005 58 318 18.2 24.3 0.00 0.17 0.15 83 1016.7
20260903044007 58 320 20.9 27.8 0.00 0.17 0.15 82 1016.8
20260903043006 59 310 15.6 25.2 0.00 0.17 0.15 82 1016.8
20260903042507 59 321 20.9 28.7 0.00 0.17 0.15 81 1016.7
20260903042006 59 314 19.1 24.3 0.00 0.17 0.15 81 1017.0
20260903041506 59 319 17.4 27.8 0.00 0.17 0.15 81 1016.9
20260903040505 58 316 20.0 28.7 0.00 0.17 0.15 81 1016.9
20260903040008 58 314 20.0 26.9 0.00 0.17 0.15 81 1017.0
20260903034505 59 314 20.9 27.8 0.00 0.17 0.15 80 1017.1
20260903033007 59 307 16.5 26.1 0.00 0.17 0.15 80 1017.4
20260903032505 60 304 15.6 30.4 0.00 0.17 0.15 79 1017.3
20260903031008 60 304 17.4 27.8 0.00 0.17 0.15 79 1017.3
20260903025007 60 313 20.9 27.8 0.00 0.17 0.15 79 1017.6
20260903024505 60 317 18.2 25.2 0.00 0.17 0.15 79 1017.4
20260903024005 60 317 20.9 26.9 0.00 0.17 0.15 78 1017.6
20260903023007 61 305 17.4 25.2 0.00 0.17 0.15 78 1017.4
20260903022505 61 319 18.2 25.2 0.00 0.17 0.15 79 1017.7
20260903021506 62 311 15.6 25.2 0.00 0.17 0.15 81 1017.6
20260903020505 62 312 16.5 25.2 0.00 0.17 0.15 81 1017.7
20260903020005 62 309 14.8 24.3 0.00 0.17 0.15 79 1018.0
20260903015006 63 306 12.2 22.6 0.00 0.17 0.15 79 1018.0
20260903014505 63 309 16.5 21.7 0.00 0.17 0.15 78 1018.1
20260903014005 64 310 15.6 20.9 0.00 0.17 0.15 78 1018.1
20260903013506 64 317 18.2 25.2 0.00 0.17 0.15 77 1018.2
20260903013006 64 302 11.3 22.6 0.00 0.17 0.15 77 1018.2
20260903012007 65 298 14.8 20.9 0.00 0.17 0.15 78 1018.5
20260903011505 65 304 11.3 20.9 0.00 0.17 0.15 77 1018.4
20260903010506 65 280 9.6 17.4 0.00 0.17 0.15 77 1018.6
20260903005505 65 288 10.4 20.0 0.00 0.17 0.15 78 1018.6
20260903004505 65 286 10.4 20.0 0.00 0.17 0.15 79 1018.9
20260903004005 65 307 9.6 19.1 0.00 0.17 0.15 80 1019.1
20260903003506 65 289 8.7 18.2 0.00 0.17 0.15 79 1019.0
20260903003005 65 308 10.4 17.4 0.00 0.17 0.15 80 1019.1
20260903002505 65 272 8.7 20.0 0.00 0.17 0.15 79 1019.2
20260903002004 65 315 15.6 21.7 0.00 0.17 0.15 79 1019.2
20260903001005 65 315 17.4 20.9 0.00 0.17 0.15 81 1019.2
20260903000006 64 319 18.2 25.2 0.00 0.17 0.15 79 1019.2
20260902234505 64 318 13.9 20.0 0.00 0.17 0.15 81 1019.3
20260902234006 63 323 13.9 20.9 0.00 0.17 0.15 81 1019.4
20260902233505 63 315 12.2 19.1 0.00 0.17 0.15 82 1019.6
20260902232506 63 308 14.8 19.1 0.00 0.17 0.15 81 1019.4
20260902231505 63 304 12.2 20.9 0.00 0.17 0.15 82 1019.2
20260902231006 63 305 12.2 20.0 0.00 0.17 0.15 82 1019.3
20260902230005 63 308 15.6 21.7 0.00 0.17 0.15 83 1019.5
20260902225506 63 306 13.9 22.6 0.00 0.17 0.15 83 1019.3
20260902225005 63 309 13.0 21.7 0.00 0.17 0.15 84 1019.3
20260902224504 63 309 16.5 20.9 0.00 0.17 0.15 84 1019.2
20260902223506 62 306 10.4 18.2 0.00 0.17 0.15 86 1019.2
20260902223005 62 265 7.0 19.1 0.00 0.17 0.15 85 1019.4
20260902222505 62 306 12.2 20.0 0.00 0.17 0.15 86 1019.4
20260902221006 61 312 15.6 20.9 0.00 0.17 0.15 87 1019.5
20260902220504 61 317 16.5 20.9 0.00 0.17 0.15 87 1019.5
20260902215506 60 306 17.4 21.7 0.00 0.17 0.15 87 1019.6
20260902215005 60 316 18.2 21.7 0.00 0.17 0.15 87 1019.5
20260902213005 59 308 18.2 24.3 0.00 0.17 0.15 88 1019.5
20260902210005 58 311 13.9 15.6 0.00 0.17 0.15 92 1019.5
20260902204004 57 316 10.4 13.9 0.00 0.17 0.15 95 1019.5
20260902203508 56 316 11.3 13.0 0.00 0.17 0.15 95 1019.4
20260902202005 55 320 10.4 13.9 0.00 0.17 0.15 95 1019.7
20260902200505 54 315 11.3 14.8 0.00 0.17 0.15 95 1019.6
20260902195005 53 319 2.6 6.1 0.00 0.17 0.15 95 1019.3
20260902194504 53 323 4.3 6.1 0.00 0.17 0.15 95 1019.4
20260902194006 53 288 2.6 7.0 0.00 0.17 0.15 95 1019.4
20260902193005 53 326 5.2 7.0 0.00 0.17 0.15 94 1019.3
20260902192504 53 324 6.1 10.4 0.00 0.17 0.15 94 1019.2
20260902192004 52 323 8.7 11.3 0.00 0.17 0.15 94 1019.4
20260902185505 52 325 3.5 7.0 0.00 0.17 0.15 94 1019.3
20260902185005 53 317 3.5 7.0 0.00 0.17 0.15 94 1019.1
20260902184505 53 325 4.3 6.1 0.00 0.17 0.15 94 1019.1
20260902183006 53 325 4.3 6.1 0.00 0.17 0.15 94 1019.1
20260902182504 53 270 3.5 4.3 0.00 0.17 0.15 94 1019.0
20260902174004 53 268 4.3 6.1 0.02 0.17 0.15 95 1018.8
20260902173506 53 277 4.3 8.7 0.03 0.17 0.15 96 1018.8
20260902172504 53 283 2.6 8.7 0.03 0.17 0.15 96 1018.9
20260902170006 53 258 8.7 13.9 0.03 0.17 0.15 96 1018.9
20260902165506 53 290 7.0 18.2 0.03 0.17 0.15 96 1018.9
20260902164506 53 311 13.9 15.6 0.03 0.15 0.13 95 1018.7
20260902162506 53 312 7.8 8.7 0.12 0.15 0.12 94 1018.7
20260902161006 53 312 7.0 8.7 0.12 0.14 0.12 94 1018.6
20260902160010 53 312 8.7 13.0 0.12 0.14 0.12 93 1019.0
20260902155506 54 308 8.7 12.2 0.12 0.14 0.12 93 1018.9
20260902155008 54 312 9.6 13.0 0.11 0.14 0.11 93 1019.1
20260902154506 54 305 8.7 12.2 0.10 0.12 0.10 93 1018.7
20260902153506 54 307 11.3 15.6 0.05 0.07 0.05 92 1018.9
20260902153008 54 281 6.1 15.6 0.03 0.05 0.03 91 1019.0
20260902152506 55 302 8.7 15.6 0.00 0.03 0.00 90 1019.1
20260902152007 55 270 7.8 15.6 0.00 0.02 0.00 90 1019.1
20260902150007 55 288 6.1 12.2 0.00 0.02 0.00 89 1019.2
20260902145506 54 278 5.2 10.4 0.00 0.02 0.00 89 1019.2
20260902144007 54 305 7.0 10.4 0.00 0.02 0.00 89 1019.5
20260902143507 54 235 8.7 13.9 0.00 0.02 0.00 89 1019.5
20260902143006 54 273 6.1 11.3 0.00 0.02 0.00 90 1019.3
20260902142006 54 295 5.2 11.3 0.00 0.02 0.00 90 1019.4
20260902140505 54 275 5.2 13.0 0.00 0.02 0.00 90 1019.3
20260902135506 54 280 6.1 13.9 0.00 0.02 0.00 91 1019.3
20260902135008 54 268 7.8 13.9 0.00 0.02 0.00 92 1019.3
20260902134506 54 276 6.1 12.2 0.00 0.02 0.00 92 1019.4
20260902134007 54 312 7.0 13.9 0.00 0.02 0.00 92 1019.3
20260902133008 54 267 5.2 12.2 0.00 0.02 0.00 92 1019.2
20260902132506 54 307 7.8 13.9 0.00 0.02 0.00 92 1019.4
20260902132006 54 278 6.1 13.9 0.00 0.02 0.00 92 1019.3
20260902131508 54 259 7.8 13.0 0.00 0.02 0.00 93 1019.2
20260902131006 54 268 7.0 13.9 0.00 0.02 0.00 93 1019.4
20260902130505 54 258 5.2 13.9 0.00 0.02 0.00 93 1019.4
20260902124506 54 286 5.2 12.2 0.00 0.02 0.00 93 1019.1
20260902124006 55 299 7.0 15.6 0.00 0.02 0.00 94 1018.9
20260902123008 55 310 14.8 19.1 0.00 0.02 0.00 94 1018.8
20260902122508 55 293 6.1 12.2 0.00 0.02 0.00 94 1018.9
20260902121508 54 308 6.1 11.3 0.00 0.02 0.00 94 1019.2
20260902114506 54 291 7.0 13.0 0.00 0.02 0.02 94 1019.1
20260902114008 54 306 7.8 13.0 0.00 0.02 0.02 94 1019.0